Location: Arleux
(50.3632°N, 2.8721°E)
Time: 06:22:12
(UTC+00:00)

USA 238 DEB - Pass Details

Date: 15 December 2019
Orbit: 1024 x 1188 km, 63.4° (Epoch: 16 January)

Event Time Altitude Azimuth Distance (km) Brightness Sun altitude
Rises 05:39:09 0° 211° (SSW) 3,771 6.4 -18.4°
Reaches altitude 10° 05:41:43 10° 209° (SSW) 2,833 5.8 -18.0°
Maximum altitude 05:48:21 71° 128° (SE) 1,119 4.0 -16.9°
Drops below altitude 10° 05:55:16 10° 46° (NE) 2,945 6.4 -15.9°
Sets 05:57:59 0° 44° (NE) 3,929 7.0 -15.5°
